This is the latest recevied weather packets stored in our database for station/object KE0PRS. If no packets are shown the sender has not sent any weather packets the latest 10 day(s).
| Time | Temp. | Humidity | Pressure | Rain* | Wind** | Luminosity | Snow |
|---|---|---|---|---|---|---|---|
| 1787458390 | 24.44° C | 70% | 1021.1 hPa | 0 mm | - | 0 W/m² | - |
| 1787458086 | 24.44° C | 70% | 1021.2 hPa | 0 mm | - | 0 W/m² | - |
| 1787457782 | 24.44° C | 69% | 1021.2 hPa | 0 mm | - | 0 W/m² | - |
| 1787457482 | 25° C | 69% | 1021 hPa | 0 mm | - | 0 W/m² | - |
| 1787457177 | 25° C | 68% | 1021.1 hPa | 0 mm | - | 0 W/m² | - |
| 1787456873 | 25° C | 68% | 1020.9 hPa | 0 mm | - | 0 W/m² | - |
| 1787456568 | 25° C | 68% | 1020.8 hPa | 0 mm | - | 0 W/m² | - |
| 1787456264 | 25.56° C | 68% | 1020.8 hPa | 0 mm | - | 0 W/m² | - |
| 1787455959 | 25.56° C | 67% | 1021 hPa | 0 mm | - | 0 W/m² | - |
| 1787455654 | 25.56° C | 67% | 1020.7 hPa | 0 mm | - | 0 W/m² | - |
| 1787455349 | 25.56° C | 67% | 1020.7 hPa | 0 mm | - | 0 W/m² | - |
| 1787455045 | 25.56° C | 66% | 1020.7 hPa | 0 mm | - | 0 W/m² | - |
| 1787454741 | 25.56° C | 66% | 1020.6 hPa | 0 mm | - | 0 W/m² | - |
| 1787454437 | 26.11° C | 66% | 1020.3 hPa | 0 mm | - | 0 W/m² | - |
| 1787454132 | 26.11° C | 66% | 1020.2 hPa | 0 mm | - | 0 W/m² | - |
| 1787453827 | 26.11° C | 66% | 1020 hPa | 0 mm | - | 0 W/m² | - |
| 1787453523 | 26.67° C | 65% | 1020 hPa | 0 mm | - | 0 W/m² | - |
| 1787453223 | 26.67° C | 65% | 1020 hPa | 0 mm | - | 0 W/m² | - |
| 1787452918 | 26.67° C | 65% | 1020.1 hPa | 0 mm | - | 0 W/m² | - |
| 1787452616 | 26.11° C | 64% | 1019.9 hPa | 0 mm | - | 0 W/m² | - |
| 1787452312 | 26.67° C | 64% | 1019.8 hPa | 0 mm | - | 0 W/m² | - |
| 1787452008 | 26.67° C | 63% | 1019.6 hPa | 0 mm | - | 0 W/m² | - |
| 1787451707 | 26.67° C | 63% | 1019.5 hPa | 0 mm | - | 0 W/m² | - |
| 1787451406 | 27.22° C | 62% | 1019.4 hPa | 0 mm | - | 0 W/m² | - |
| 1787451102 | 27.22° C | 61% | 1019.5 hPa | 0 mm | - | 0 W/m² | - |
* Rain latest hour (hover to see other rain measurements)
** Current wind speed in m/s (hover to see current wind gust speed)